Location: ???????
(55.2903°N, 39.1554°E)
Time: 20:41:39
(UTC+00:00)

NOSS 3-4 (A) - Pass Details

Date: 14 April 2024
Orbit: 806 x 1405 km, 63.4° (Epoch: 14 May)

Event Time Altitude Azimuth Distance (km) Brightness Sun altitude
Exits shadow 00:16:44 24° 234° (SW) 1,684 4.2 -15.8°
Maximum altitude 00:20:16 84° 322° (NW) 904 3.3 -15.5°
Drops below altitude 10° 00:26:38 10° 51° (NE) 2,751 7.3 -14.8°
Sets 00:29:24 0° 53° (NE) 3,794 8.5 -14.5°
